Total_Precipitation_Accumulation
0.00 0.00 0.02 0.03 0.04 0.06 0.04 0.04 0.05 0.05 0.05 0.05 0.05 0.05 0.04 0.03 0.02 0.02 0.01 0.00 0.00 0.02 0.04 0.08 0.10 0.11 0.12 0.11 0.11 0.14 0.17 0.25 0.26 0.05 0.08 0.11 0.11 0.10 0.08 0.09 0.08 0.05 0.04
0.00 0.00 0.01 0.02 0.04 0.05 0.05 0.03 0.03 0.03 0.02 0.01 0.01 0.01 0.01 0.01 0.01 0.01 0.02 0.02 0.02 0.03 0.05 0.12 0.15 0.20 0.23 0.20 0.18 0.15 0.14 0.16 0.27 0.19 0.11 0.14 0.12 0.11 0.10 0.12 0.12 0.13 0.14
0.00 0.00 0.00 0.00 0.00 0.01 0.01 0.02 0.03 0.03 0.01 0.01 0.01 0.01 0.00 0.00 0.00 0.00 0.01 0.03 0.04 0.06 0.09 0.13 0.14 0.16 0.18 0.15 0.11 0.10 0.14 0.23 0.31 0.40 0.22 0.14 0.10 0.12 0.16 0.20 0.20 0.19 0.18
0.01 0.01 0.01 0.02 0.02 0.01 0.01 0.01 0.02 0.02 0.02 0.01 0.01 0.00 0.00 0.00 0.00 0.01 0.02 0.05 0.06 0.07 0.08 0.11 0.14 0.16 0.13 0.08 0.08 0.15 0.23 0.33 0.34 0.33 0.39 0.28 0.21 0.19 0.26 0.28 0.25 0.26 0.29
0.03 0.03 0.04 0.03 0.02 0.02 0.01 0.01 0.01 0.02 0.01 0.01 0.02 0.02 0.01 0.01 0.03 0.05 0.07 0.10 0.14 0.16 0.19 0.19 0.16 0.09 0.05 0.06 0.12 0.16 0.32 0.40 0.55 0.73 0.66 0.60 0.56 0.44 0.39 0.40 0.46 0.38 0.32
0.06 0.05 0.03 0.03 0.02 0.02 0.02 0.01 0.01 0.02 0.03 0.06 0.08 0.09 0.11 0.13 0.21 0.19 0.15 0.14 0.17 0.20 0.17 0.12 0.08 0.06 0.04 0.06 0.11 0.18 0.33 0.64 0.84 0.93 0.94 0.72 0.45 0.41 0.38 0.45 0.59 0.71 0.63
0.12 0.07 0.04 0.04 0.10 0.09 0.10 0.07 0.06 0.06 0.08 0.12 0.19 0.23 0.25 0.24 0.27 0.24 0.20 0.17 0.16 0.12 0.09 0.07 0.04 0.02 0.02 0.03 0.08 0.16 0.33 0.61 0.70 0.59 0.51 0.43 0.40 0.36 0.53 0.66 0.66 0.76 0.64
0.19 0.24 0.16 0.18 0.31 0.55 0.45 0.42 0.38 0.26 0.19 0.22 0.26 0.30 0.34 0.31 0.27 0.18 0.14 0.13 0.10 0.07 0.04 0.01 0.01 0.02 0.03 0.06 0.14 0.39 0.35 0.21 0.20 0.26 0.33 0.36 0.46 0.57 0.82 1.11 1.09 0.98 0.69
0.08 0.11 0.15 0.44 0.54 0.49 0.31 0.49 0.48 0.37 0.41 0.41 0.36 0.30 0.23 0.14 0.09 0.08 0.07 0.06 0.04 0.02 0.01 0.01 0.05 0.03 0.03 0.13 0.37 0.41 0.19 0.13 0.19 0.27 0.39 0.45 0.43 0.38 0.41 0.77 0.90 0.82 0.71
0.09 0.07 0.27 0.70 0.56 0.44 0.23 0.40 0.50 0.38 0.28 0.25 0.21 0.14 0.10 0.07 0.05 0.03 0.03 0.03 0.02 0.01 0.02 0.02 0.03 0.04 0.10 0.37 0.27 0.24 0.26 0.17 0.33 0.34 0.35 0.39 0.39 0.38 0.44 0.50 0.95 1.63 1.13
0.27 0.22 0.42 0.47 0.46 0.36 0.28 0.30 0.27 0.24 0.14 0.10 0.09 0.05 0.03 0.02 0.01 0.00 0.01 0.02 0.03 0.14 0.11 0.03 0.03 0.14 0.35 0.21 0.16 0.19 0.22 0.27 0.33 0.30 0.32 0.37 0.39 0.40 0.45 0.61 0.98 1.81 2.05
0.41 0.35 0.32 0.26 0.25 0.25 0.12 0.09 0.05 0.03 0.02 0.01 0.01 0.01 0.00 0.00 0.00 0.00 0.01 0.03 0.07 0.10 0.05 0.02 0.09 0.23 0.09 0.05 0.09 0.18 0.32 0.31 0.24 0.33 0.47 0.52 0.51 0.52 0.59 0.66 0.72 0.85 1.04
0.22 0.16 0.12 0.11 0.09 0.06 0.03 0.03 0.02 0.01 0.00 0.00 0.00 0.00 0.00 0.00 0.00 0.00 0.00 0.07 0.09 0.07 0.05 0.16 0.15 0.03 0.03 0.04 0.10 0.17 0.16 0.15 0.35 0.66 0.81 0.82 0.75 0.80 0.84 0.76 0.68 0.64 0.68
0.06 0.06 0.04 0.02 0.01 0.00 0.00 0.00 0.00 0.00 0.00 0.00 0.00 0.00 0.00 0.00 0.00 0.00 0.03 0.05 0.04 0.08 0.17 0.14 0.02 0.03 0.05 0.06 0.08 0.07 0.07 0.17 0.42 0.62 0.68 0.61 0.70 0.74 0.73 0.84 1.06 0.96 1.03
0.00 0.00 0.00 0.00 0.00 0.00 0.00 0.00 0.00 0.00 0.00 0.00 0.00 0.01 0.01 0.01 0.01 0.04 0.06 0.05 0.09 0.16 0.07 0.01 0.01 0.02 0.02 0.02 0.04 0.06 0.11 0.24 0.41 0.41 0.56 0.62 0.72 0.81 0.83 0.93 1.20 1.15 0.99
0.00 0.00 0.00 0.00 0.00 0.00 0.00 0.00 0.00 0.00 0.00 0.00 0.00 0.01 0.01 0.02 0.03 0.05 0.05 0.12 0.16 0.07 0.05 0.03 0.04 0.05 0.08 0.09 0.11 0.15 0.20 0.32 0.39 0.55 0.62 0.68 0.84 0.92 1.09 1.21 1.22 1.02 0.82
0.00 0.00 0.00 0.00 0.00 0.00 0.00 0.00 0.00 0.00 0.00 0.00 0.00 0.00 0.01 0.02 0.02 0.03 0.10 0.13 0.03 0.06 0.08 0.12 0.15 0.16 0.15 0.16 0.22 0.36 0.48 0.53 0.77 0.90 0.92 0.93 0.99 1.07 1.13 1.15 0.94 0.70 0.50
0.00 0.00 0.00 0.00 0.00 0.00 0.00 0.00 0.00 0.00 0.00 0.00 0.00 0.00 0.01 0.01 0.02 0.05 0.08 0.03 0.02 0.11 0.20 0.25 0.28 0.25 0.24 0.31 0.38 0.56 0.71 0.73 0.78 0.86 1.01 1.06 1.20 1.35 1.21 1.03 0.72 0.54 0.39
0.00 0.00 0.00 0.00 0.00 0.00 0.00 0.00 0.00 0.00 0.00 0.00 0.00 0.00 0.00 0.00 0.04 0.05 0.02 0.01 0.04 0.12 0.21 0.28 0.35 0.34 0.35 0.43 0.49 0.62 0.78 1.02 1.25 1.36 1.18 1.28 1.28 1.32 0.93 0.60 0.41 0.20 0.22
0.00 0.00 0.00 0.00 0.00 0.00 0.00 0.00 0.00 0.00 0.01 0.01 0.01 0.00 0.00 0.04 0.09 0.01 0.00 0.01 0.04 0.06 0.09 0.18 0.24 0.32 0.33 0.42 0.57 0.82 1.04 1.09 1.15 1.14 1.23 1.25 1.08 0.88 0.68 0.38 0.19 0.26 0.16
0.00 0.00 0.00 0.00 0.00 0.00 0.00 0.00 0.01 0.03 0.03 0.02 0.00 0.01 0.04 0.06 0.04 0.01 0.02 0.02 0.03 0.04 0.07 0.12 0.21 0.32 0.38 0.47 0.65 0.84 1.09 1.15 1.18 1.30 1.17 0.94 0.75 0.53 0.24 0.21 0.19 0.19 0.25
0.00 0.00 0.00 0.00 0.00 0.00 0.00 0.01 0.01 0.02 0.02 0.03 0.01 0.01 0.03 0.02 0.01 0.02 0.03 0.02 0.02 0.03 0.05 0.09 0.16 0.27 0.48 0.82 1.11 1.18 1.09 1.09 1.08 1.18 0.95 0.59 0.38 0.20 0.20 0.23 0.24 0.24 0.22
0.00 0.00 0.00 0.00 0.00 0.01 0.01 0.01 0.03 0.03 0.03 0.02 0.03 0.02 0.01 0.02 0.02 0.02 0.02 0.02 0.02 0.02 0.02 0.05 0.16 0.24 0.32 0.67 1.13 1.59 1.69 1.29 1.23 1.01 0.79 0.57 0.44 0.50 0.50 0.40 0.27 0.19 0.14
0.00 0.00 0.00 0.01 0.01 0.01 0.02 0.02 0.02 0.02 0.02 0.02 0.02 0.02 0.02 0.03 0.03 0.02 0.02 0.01 0.02 0.02 0.01 0.04 0.15 0.31 0.43 0.72 1.04 1.29 1.53 1.58 1.41 1.26 1.32 1.09 0.68 0.42 0.30 0.22 0.16 0.14 0.11
0.01 0.01 0.01 0.01 0.01 0.01 0.01 0.02 0.02 0.02 0.02 0.02 0.03 0.03 0.03 0.02 0.02 0.01 0.01 0.02 0.03 0.03 0.01 0.04 0.15 0.35 0.53 0.85 1.09 1.24 1.28 1.20 1.07 0.88 0.55 0.40 0.34 0.27 0.26 0.24 0.14 0.10 0.07
0.01 0.01 0.01 0.01 0.01 0.01 0.01 0.01 0.02 0.02 0.03 0.04 0.04 0.04 0.03 0.02 0.02 0.03 0.03 0.04 0.03 0.02 0.02 0.04 0.13 0.30 0.52 0.78 1.02 1.19 1.17 0.97 0.68 0.40 0.17 0.17 0.21 0.17 0.16 0.17 0.13 0.09 0.06